Location: Balaclava NSW 2575, Australia
(34.4510°S, 150.4953°E)
Time: 17:11:09
(UTC+10:00)

Envisat - Pass Details

Date: 19 May 2021
Orbit: 764 x 766 km, 98.1° (Epoch: 18 June)

Event Time Altitude Azimuth Distance (km) Brightness Sun altitude
Rises 04:16:23 0° 26° (NNE) 3,218 6.6 -30.9°
Reaches altitude 10° 04:18:43 10° 31° (NNE) 2,300 5.8 -30.4°
Maximum altitude 04:23:38 53° 106° (ESE) 948 3.7 -29.4°
Enters shadow 04:25:29 35° 162° (SSE) 1,237 4.1 -29.0°
